Retour au catalogue

STARLINK-4594

ActifCommunicationsVLEO
NORAD 53638·PAYLOAD·🇺🇸 United States

Lancé Aug 28, 2022 depuis Cape Canaveral Space Force Station

Loading…

Prochains Passages (prochaines 24 heures)

TLE

FraisSource: CelesTrak SupGP

Époque: Sep 15, 2026, 02:37 UTC

1 53638C 22104BC  26258.10951389 -.00018837  00000+0 -53898-3 0  2585
2 53638  53.1584  86.8647 0001256  78.2759 185.5196 15.35405905    17

Suivez STARLINK-4594 en temps réel avec AllMySat

Download on the App Store